Hourly Data Report for October 03, 2015

All times are specified in Local Standard Time (LST). Add 1 hour to adjust for Daylight Saving Time where and when it is observed.

WINNIPEG A CS
MANITOBA

49°55'00.000" N
97°14'58.000" W
238.70 m
502S001
71849
XWG

Download Data

Hourly Data (October 2015)
Hourly Data Report for October 3, 2015
Temp Definition
°C
Dew Point Temp Definition
°C
Rel Hum Definition
%
Wind Dir Definition
10's deg

Wind Spd Definition
km/h
Visibility Definition
km
Stn Press Definition
kPa
Hmdx Definition


Wind Chill Definition


Weather Definition


TIME
00:00 8.4 3.6 72 14 19   99.92     LegendNANA
01:00 7.4 3.1 74 14 17   99.95     LegendNANA
02:00 6.6 2.8 77 14 16   99.94     LegendNANA
03:00 6.3 2.2 75 15 18   99.95     LegendNANA
04:00 5.2 2.1 81 14 16   99.98     LegendNANA
05:00 4.0 1.9 86 14 14   99.97     LegendNANA
06:00 4.3 2.6 88 14 16   99.99     LegendNANA
07:00 5.5 3.6 88 14 19   100.01     LegendNANA
08:00 6.9 4.0 82 13 17   99.97     LegendNANA
09:00 9.2 4.2 71 15 25   99.97     LegendNANA
10:00 12.0 3.5 56 16 21   99.98     LegendNANA
11:00 14.4 4.1 50 15 20   99.94     LegendNANA
12:00 15.0 1.6 40 16 21   99.88     LegendNANA
13:00 15.4 1.7 40 14 22   99.81     LegendNANA
14:00 15.6 1.0 37 13 22   99.73     LegendNANA
15:00 16.8 1.1 35 15 24   99.70     LegendNANA
16:00 15.8 1.4 38 15 26   99.68     LegendNANA
17:00 15.2 1.6 40 14 23   99.64     LegendNANA
18:00 13.2 2.8 49 13 20   99.67     LegendNANA
19:00 11.5 2.4 53 13 17   99.69     LegendNANA
20:00 10.8 2.5 56 13 17   99.71     LegendNANA
21:00 9.6 2.7 62 12 16   99.71     LegendNANA
22:00 9.6 3.0 63 12 18   99.69     LegendNANA
23:00 9.6 3.3 65 14 17   99.68     LegendNANA

Notes on Data Quality.

Legend

  • E = Estimated
  • M = Missing
  • NA = Not Available
  • ‡ = Partner data that is not subject to review by the National Climate Archives
Date modified: